CW2751 Weather Reports


Display with metric or nautical units.
time (UTC)temp
F
wind
direction
speed
MPH
gust
MPH
rain 1hr
in
rain 24hr
in
rain mn
in
humidity
%
barometer
mb
20260505013042 66 54 17.0 0.0 0.00 0.00 0.00 32 996.1
20260505011503 67 38 17.0 0.0 0.00 0.00 0.00 31 995.5
20260505010009 68 46 19.0 0.0 0.00 0.00 0.00 29 996.2
20260505004538 70 51 17.0 0.0 0.00 0.00 0.00 28 995.9
20260505003004 71 69 18.0 0.0 0.00 0.00 0.00 26 995.4
20260505001511 71 27 15.0 0.0 0.00 0.00 0.00 27 995.5
20260505000044 74 342 14.0 0.0 0.00 0.00 0.00 24 995.3
20260504234604 76 330 6.0 0.0 0.00 0.00 0.00 16 994.8
20260504233057 76 41 8.0 0.0 0.00 0.00 0.00 16 994.4
20260504231557 77 277 9.0 0.0 0.00 0.00 0.00 14 994.2
20260504230011 78 298 6.0 0.0 0.00 0.00 0.00 13 993.9
20260504224508 80 268 5.0 0.0 0.00 0.00 0.00 12 993.8
20260504223005 80 295 4.0 0.0 0.00 0.00 0.00 12 993.4
20260504221542 81 308 3.0 0.0 0.00 0.00 0.00 12 993.6
20260504220006 80 279 4.0 0.0 0.00 0.00 0.00 11 993.4
20260504214513 81 319 3.0 0.0 0.00 0.00 0.00 12 993.5
20260504213042 82 325 5.0 0.0 0.00 0.00 0.00 12 993.8
20260504211522 82 284 4.0 0.0 0.00 0.00 0.00 11 993.6
20260504210049 83 316 5.0 0.0 0.00 0.00 0.00 13 993.7
20260504204506 81 213 6.0 0.0 0.00 0.00 0.00 11 994.1
20260504203037 84 137 3.0 0.0 0.00 0.00 0.00 11 994.0
20260504201540 85 316 3.0 0.0 0.00 0.00 0.00 12 994.0
20260504200050 83 72 5.0 0.0 0.00 0.00 0.00 14 993.6
20260504194604 83 230 6.0 0.0 0.00 0.00 0.00 12 993.9
20260504193014 83 277 4.0 0.0 0.00 0.00 0.00 13 994.1
20260504191512 82 326 5.0 0.0 0.00 0.00 0.00 15 994.2
20260504190100 82 312 5.0 0.0 0.00 0.00 0.00 15 994.6
20260504184518 81 320 4.0 0.0 0.00 0.00 0.00 17 994.9
20260504183056 80 8 5.0 0.0 0.00 0.00 0.00 18 995.2
20260504183002 80 340 5.0 0.0 0.00 0.00 0.00 18 995.2
20260504181510 79 326 4.0 0.0 0.00 0.00 0.00 17 995.5
20260504180018 80 308 4.0 0.0 0.00 0.00 0.00 18 995.4
20260504174526 79 51 5.0 0.0 0.00 0.00 0.00 20 995.9
20260504173023 79 288 5.0 0.0 0.00 0.00 0.00 20 996.1
20260504171539 78 310 5.0 0.0 0.00 0.00 0.00 18 996.3
20260504140108 58 315 4.0 0.0 0.00 0.00 0.00 41 997.6
20260504081546 54 3 2.0 0.0 0.00 0.00 0.00 47 997.5
20260504050012 57 145 2.0 0.0 0.00 0.00 0.00 37 999.5
20260504044546 57 113 2.0 0.0 0.00 0.00 0.00 37 999.5
20260504043040 57 121 1.0 0.0 0.00 0.00 0.00 37 999.5
20260504041502 57 102 2.0 0.0 0.00 0.00 0.00 36 999.8
20260504040035 57 107 4.0 0.0 0.00 0.00 0.00 35 1000.2
20260504034551 58 87 3.0 0.0 0.00 0.00 0.00 35 1000.4
20260504033013 59 78 3.0 0.0 0.00 0.00 0.00 33 1000.3
20260504031524 60 46 3.0 0.0 0.00 0.00 0.00 30 1000.2
20260504030044 62 45 4.0 0.0 0.00 0.00 0.00 28 999.8
20260504024604 63 49 3.0 0.0 0.00 0.00 0.00 27 999.1
20260504023100 65 51 3.0 0.0 0.00 0.00 0.00 25 998.8
20260504023003 66 46 3.0 0.0 0.00 0.00 0.00 25 998.8
20260504021508 68 41 1.0 0.0 0.00 0.00 0.00 24 998.5
20260504020016 71 54 1.0 0.0 0.00 0.00 0.00 21 998.6
20260504014518 73 80 2.0 0.0 0.00 0.00 0.00 20 998.3